Deville, LA

1:32 PM CDT on August 25, 2016 (GMT -0500)
Alexandria Esler Regional

Weather History for KESF - November, 2013

Change the Weather History Date:

Saturday, November 23, 2013

  Actual Average Record
Temperature  
Mean Temperature 50 °F -  
Max Temperature 57 °F 64 °F 82 °F (2010)
Min Temperature 41 °F 42 °F 28 °F (1975)
Degree Days  
Heating Degree Days 16    
Moisture  
Dew Point 44 °F    
Average Humidity 86    
Maximum Humidity 94    
Minimum Humidity 62    
Precipitation  
Precipitation 0.11 in - - ()
Sea Level Pressure  
Sea Level Pressure 30.34 in    
Wind  
Wind Speed 7 mph (NNE)    
Max Wind Speed 10 mph    
Max Gust Speed 21 mph    
Visibility 7 miles    
Events Rain    
Averages and records for this station are not official NWS values.
T = Trace of Precipitation, MM = Missing Value Source: NWS Daily Summary

Daily Weather History Graph

Daily Weather History Graph

Search for Another Location

Airport or City:

Trip Planner

Search our weather history database for the weather conditions in past years. The results will help you decide how hot, cold, wet, or windy it might be!

Date:

Astronomy

Nov. 23, 2013 Rise Set
Actual Time 6:43 AM CST 5:07 PM CST
Civil Twilight 6:17 AM CST 5:33 PM CST
Nautical Twilight 5:48 AM CST 6:03 PM CST
Astronomical Twilight 5:19 AM CST 6:32 PM CST
Moon 10:27 PM CST (11/23) 11:08 AM CST (11/23)
Length of Visible Light 11h 15m
Length of Day
10h 23m
Waning Gibbous, 69% of the Moon is Illuminated
Nov 23
Waning Gibbous
Nov 25
Last Quarter
Dec 2
New
Dec 9
First Quarter
Dec 17
Full

Hourly Weather History & Observations

Time (CST) Temp. Windchill Dew Point Humidity Pressure Visibility Wind Dir Wind Speed Gust Speed Precip Events Conditions
12:18 AM 57.2 °F - 53.6 °F 88% 30.25 in 10.0 mi Variable 5.8 mph - N/A   Overcast
12:53 AM 55.9 °F - 53.1 °F 90% 30.25 in 10.0 mi Variable 6.9 mph - N/A   Overcast
1:53 AM 55.0 °F - 52.0 °F 89% 30.26 in 9.0 mi NNE 5.8 mph - N/A   Overcast
2:53 AM 54.0 °F - 51.1 °F 90% 30.25 in 9.0 mi NNE 8.1 mph - N/A   Overcast
3:07 AM 53.6 °F - 51.8 °F 94% 30.26 in 10.0 mi NE 6.9 mph - N/A   Overcast
3:21 AM 53.6 °F - 51.8 °F 94% 30.26 in 8.0 mi NNE 5.8 mph - N/A   Overcast
3:53 AM 52.0 °F - 50.0 °F 93% 30.26 in 7.0 mi Variable 5.8 mph - N/A   Overcast
4:53 AM 51.1 °F - 48.0 °F 89% 30.27 in 4.0 mi Variable 5.8 mph 18.4 mph N/A   Overcast
5:35 AM 51.8 °F - 48.2 °F 88% 30.28 in 2.5 mi North 8.1 mph - N/A   Overcast
5:45 AM 50.0 °F - 48.2 °F 94% 30.29 in 3.0 mi NNE 9.2 mph 17.3 mph N/A   Overcast
5:53 AM 50.0 °F - 46.9 °F 89% 30.29 in 4.0 mi Variable 6.9 mph 17.3 mph N/A   Overcast
6:53 AM 48.9 °F - 46.0 °F 90% 30.32 in 4.0 mi Variable 3.5 mph - N/A   Overcast
7:53 AM 48.0 °F - 44.1 °F 86% 30.34 in 8.0 mi Variable 6.9 mph - 0.00 in Rain Light Rain
8:00 AM 48.2 °F - 44.6 °F 87% 30.34 in 10.0 mi NNE 6.9 mph - 0.00 in   Overcast
8:53 AM 48.0 °F - 44.1 °F 86% 30.36 in 4.0 mi Variable 5.8 mph - 0.02 in Rain Rain
9:53 AM 46.9 °F - 43.0 °F 86% 30.37 in 5.0 mi NNE 8.1 mph 18.4 mph 0.01 in Rain Rain
10:00 AM 46.4 °F 42.4 °F 44.6 °F 93% 30.37 in 1.8 mi NE 8.1 mph - 0.02 in Rain Heavy Rain
10:07 AM 46.4 °F 42.4 °F 44.6 °F 93% 30.37 in 2.0 mi NE 8.1 mph - 0.03 in Rain Rain
10:21 AM 46.4 °F 44.3 °F 44.6 °F 93% 30.37 in 4.0 mi Variable 4.6 mph - 0.04 in Rain Rain
10:29 AM 46.4 °F 43.5 °F 44.6 °F 93% 30.36 in 6.0 mi Variable 5.8 mph - 0.04 in Rain Light Rain
10:53 AM 46.9 °F - 44.1 °F 90% 30.37 in 3.0 mi Variable 6.9 mph - 0.05 in Rain Light Rain
11:11 AM 46.4 °F 45.2 °F 44.6 °F 93% 30.36 in 5.0 mi Variable 3.5 mph - 0.00 in Rain Light Rain
11:53 AM 46.9 °F - 44.1 °F 90% 30.36 in 3.0 mi Variable 4.6 mph - 0.01 in Rain Rain
11:58 AM 46.4 °F 44.3 °F 44.6 °F 93% 30.36 in 1.8 mi Variable 4.6 mph - 0.01 in Rain Rain
12:07 PM 46.4 °F 43.5 °F 44.6 °F 93% 30.36 in 3.0 mi Variable 5.8 mph - 0.02 in Rain Light Rain
12:30 PM 46.4 °F 41.9 °F 44.6 °F 93% 30.35 in 10.0 mi NNE 9.2 mph 20.7 mph 0.02 in Rain Light Rain
12:41 PM 46.4 °F 41.5 °F 44.6 °F 93% 30.34 in 10.0 mi NNE 10.4 mph 18.4 mph 0.02 in   Overcast
12:53 PM 48.0 °F - 44.1 °F 86% 30.34 in 10.0 mi NE 9.2 mph - 0.02 in   Overcast
1:16 PM 46.4 °F 43.5 °F 44.6 °F 93% 30.34 in 5.0 mi Variable 5.8 mph - 0.00 in Rain Light Rain
1:53 PM 46.9 °F - 43.0 °F 86% 30.34 in 10.0 mi Variable 5.8 mph - 0.00 in   Overcast
2:53 PM 46.9 °F - 43.0 °F 86% 30.35 in 10.0 mi NE 10.4 mph 18.4 mph N/A   Overcast
3:09 PM 46.4 °F 42.4 °F 42.8 °F 87% 30.35 in 7.0 mi NE 8.1 mph 17.3 mph N/A   Overcast
3:38 PM 46.4 °F 42.4 °F 42.8 °F 87% 30.36 in 10.0 mi NNE 8.1 mph 17.3 mph N/A   Overcast
3:45 PM 46.4 °F 42.4 °F 42.8 °F 87% 30.36 in 10.0 mi NNE 8.1 mph 17.3 mph N/A   Overcast
3:53 PM 46.0 °F 41.4 °F 42.1 °F 86% 30.37 in 10.0 mi North 9.2 mph - N/A   Overcast
4:09 PM 46.4 °F 42.4 °F 42.8 °F 87% 30.36 in 10.0 mi NNE 8.1 mph - N/A   Overcast
4:31 PM 46.4 °F 42.4 °F 42.8 °F 87% 30.36 in 9.0 mi North 8.1 mph 16.1 mph N/A   Overcast
4:53 PM 46.0 °F 43.1 °F 41.0 °F 83% 30.36 in 8.0 mi Variable 5.8 mph 20.7 mph N/A   Overcast
5:10 PM 46.4 °F 42.9 °F 41.0 °F 81% 30.37 in 9.0 mi NE 6.9 mph 16.1 mph N/A   Overcast
5:53 PM 46.0 °F 41.0 °F 41.0 °F 83% 30.37 in 10.0 mi NNE 10.4 mph 17.3 mph 0.00 in   Overcast
6:39 PM 46.4 °F 43.5 °F 39.2 °F 76% 30.37 in 10.0 mi Variable 5.8 mph 19.6 mph N/A   Overcast
6:53 PM 46.0 °F 42.5 °F 39.0 °F 76% 30.39 in 10.0 mi Variable 6.9 mph - N/A   Overcast
7:53 PM 45.0 °F 40.6 °F 37.0 °F 74% 30.41 in 10.0 mi NE 8.1 mph 16.1 mph N/A   Partly Cloudy
8:53 PM 44.1 °F 40.1 °F 36.0 °F 73% 30.42 in 10.0 mi Variable 6.9 mph - N/A   Clear
9:53 PM 44.1 °F 40.1 °F 32.0 °F 63% 30.43 in 10.0 mi Variable 6.9 mph - N/A   Clear
10:53 PM 42.1 °F 37.7 °F 30.0 °F 62% 30.43 in 10.0 mi Variable 6.9 mph - N/A   Clear
11:53 PM 41.0 °F 38.0 °F 28.9 °F 62% 30.43 in 10.0 mi Variable 4.6 mph - N/A   Clear